[[{"header":{"parameterUnit":"m.s-1","parameterCategory":1,"la1":30.2991,"la2":30.254,"lo1":-89.0895,"lo2":-89.0444,"dy":0.0017,"dx":0.0017,"nx":28,"ny":28,"refTime":"2024-04-30T21:00:00:Z","depth":0,"parameterNumber":2,"parameterNumberName":"U-component_of_WINDS"},"data":[0,0,0,0,0,0,0,0,0,0,0,0,0,0,0,0,0,0,0,0,0,0,0,0,0,0,0,0,0,0,0,0,0,0,0,0,0,0,0,0,0,0,0,0,0,0,0,0,0,0,0,0,0,0,0,0,0,0,-0.2112,-0.211,0,-0.1915,-0.1912,-0.191,-0.1825,-0.1826,-0.1826,-0.1826,-0.162,-0.1615,-0.1609,0,0,0,0,0,0,0,0,0,0,0,0,0,-0.2412,-0.2407,-0.2113,-0.211,-0.2108,-0.1915,-0.1912,-0.191,-0.1825,-0.1826,-0.1826,-0.1826,-0.1622,-0.1615,-0.1608,0,0,0,0,0,0,0,0,0,0,0,0,0,-0.2255,-0.2406,-0.2113,-0.2042,-0.2034,-0.1916,-0.1912,-0.1909,-0.1825,-0.1826,-0.1826,-0.1827,-0.1624,-0.1616,-0.1607,-0.1543,0,0,-0.1581,-0.1577,0,0,0,0,0,0,0,0,-0.2264,-0.2244,-0.2055,-0.2047,-0.2038,-0.1895,-0.1942,-0.1786,-0.1825,-0.1904,-0.1826,-0.1827,-0.1711,-0.1695,-0.1657,-0.1534,-0.1525,-0.158,-0.1575,-0.1571,-0.1568,0,0,0,0,0,0,0,-0.2275,-0.2252,-0.2034,-0.2053,-0.2042,-0.2019,-0.1997,-0.1912,-0.1807,-0.1897,-0.1891,-0.1869,-0.1706,-0.1666,-0.1651,-0.1522,-0.158,-0.1572,-0.1567,-0.1564,-0.1334,-0.1333,0,0,0,0,0,0,-0.2298,-0.2262,-0.204,-0.2028,-0.2155,-0.2013,-0.1989,-0.194,-0.1808,-0.1788,-0.1869,-0.1866,-0.168,-0.1662,-0.1644,-0.1558,-0.1571,-0.1563,-0.1558,-0.1335,-0.1334,-0.1333,0,0,0,0,0,0,-0.2305,-0.2279,-0.2048,-0.2143,-0.2112,-0.2008,-0.1954,-0.1936,-0.1895,-0.1786,-0.1766,-0.1847,-0.168,-0.1656,-0.1569,-0.155,-0.1559,-0.1551,-0.1336,-0.1334,-0.1333,-0.1388,0,0,0,0,0,0,-0.2314,-0.2282,-0.2258,-0.2143,-0.2107,-0.1978,-0.1953,-0.1932,-0.1881,-0.1875,-0.176,-0.1742,-0.1678,-0.1582,-0.156,-0.1538,-0.1544,-0.1337,-0.1335,-0.1334,-0.1388,-0.1389,-0.139,0,0,0,0,0,-0.2325,-0.2281,-0.2257,-0.2231,-0.2075,-0.1977,-0.1956,-0.1886,-0.188,-0.1853,-0.1783,-0.1745,-0.1556,-0.1574,-0.1548,-0.1524,-0.1338,-0.1336,-0.1334,-0.1387,-0.1389,-0.139,0,0,0,0,0,0,-0.2395,-0.2265,-0.2237,-0.2155,-0.2078,-0.1963,-0.1928,-0.189,-0.1812,-0.181,-0.1724,-0.1699,-0.1618,-0.1562,-0.1584,-0.1454,-0.1444,-0.1437,-0.1493,-0.1494,-0.1495,-0.1509,-0.1537,0,0,0,0,0,-0.2401,-0.2334,-0.2223,-0.2161,-0.2124,-0.2033,-0.1988,-0.194,-0.1856,-0.1823,-0.1746,-0.1665,-0.1587,-0.1538,-0.146,-0.138,-0.1352,-0.135,-0.1352,-0.1353,-0.1347,-0.1299,-0.1296,-0.1326,-0.1326,-0.1326,0,0,-0.2412,-0.2333,-0.2295,-0.2173,-0.2108,-0.2039,-0.2006,-0.1934,-0.1881,-0.1811,-0.1724,-0.1665,-0.1569,-0.1485,-0.1443,-0.1435,-0.1333,-0.1351,-0.1353,-0.1346,-0.1297,-0.1294,-0.1291,-0.1325,-0.1325,-0.1325,0,0,-0.2397,-0.2331,-0.2272,-0.2207,-0.2109,-0.2049,-0.2035,-0.1925,-0.1884,-0.1795,-0.1741,-0.1676,-0.1544,-0.1478,-0.1427,-0.1386,-0.1347,-0.1363,-0.1369,-0.1323,-0.1321,-0.1318,-0.1302,-0.1297,-0.1358,-0.1359,-0.1359,0,-0.2423,-0.2318,-0.2245,-0.2176,-0.2123,-0.2058,-0.1996,-0.1937,-0.1818,-0.1782,-0.1775,-0.1608,-0.1539,-0.1437,-0.1427,-0.1389,-0.1368,-0.1375,-0.1327,-0.1324,-0.132,-0.1304,-0.1298,-0.1361,-0.1361,-0.136,-0.136,0,-0.2353,-0.2281,-0.2244,-0.2133,-0.2076,-0.2011,-0.1927,-0.1878,-0.1835,-0.1775,-0.1684,-0.16,-0.1503,-0.1476,-0.1433,-0.1367,-0.1365,-0.1344,-0.1332,-0.1321,-0.1304,-0.1297,-0.1364,-0.1364,-0.1363,-0.1362,0,0,-0.2375,-0.2225,-0.2212,-0.216,-0.2047,-0.1989,-0.1921,-0.1827,-0.1786,-0.1706,-0.1645,-0.1535,-0.1515,-0.1457,-0.1406,-0.1366,-0.1337,-0.1349,-0.1345,-0.1348,-0.1257,-0.1272,-0.1266,-0.1312,-0.131,-0.1309,-0.1264,0,-0.2343,-0.2219,-0.2151,-0.2054,-0.1986,-0.1923,-0.1863,-0.1786,-0.1728,-0.166,-0.1596,-0.1518,-0.1498,-0.1463,-0.142,-0.135,-0.1317,-0.1352,-0.1252,-0.1249,-0.1276,-0.1257,-0.1273,-0.1234,-0.1257,-0.1256,-0.1255,0,-0.2289,-0.2211,-0.2108,-0.2002,-0.1971,-0.1918,-0.1826,-0.1763,-0.1674,-0.1634,-0.157,-0.152,-0.1443,-0.1439,-0.1331,-0.1357,-0.1312,-0.1271,-0.1268,-0.1253,-0.125,-0.124,-0.1221,-0.1214,-0.1244,-0.1245,-0.1246,0,-0.2313,-0.2183,-0.2103,-0.2061,-0.1936,-0.19,-0.1846,-0.1758,-0.1706,-0.1625,-0.159,-0.1502,-0.1453,-0.1385,-0.1312,-0.1316,-0.1211,-0.1201,-0.1174,-0.1176,-0.1153,-0.1155,-0.1124,-0.1128,-0.1129,-0.1129,-0.1129,0,-0.2283,-0.2222,-0.2112,-0.2064,-0.1992,-0.1915,-0.1846,-0.1787,-0.1709,-0.1646,-0.1587,-0.1529,-0.1437,-0.1367,-0.131,-0.1228,-0.1207,-0.1171,-0.1156,-0.1175,-0.118,-0.1143,-0.1143,-0.1127,-0.1127,-0.1128,-0.1128,0,-0.2298,-0.2222,-0.2131,-0.2021,-0.1991,-0.1944,-0.1848,-0.1797,-0.1736,-0.1657,-0.1634,-0.1539,-0.1453,-0.1374,-0.126,-0.1221,-0.1138,-0.112,-0.1168,-0.116,-0.1137,-0.1139,-0.1079,-0.1066,-0.1082,-0.1082,-0.1082,0,-0.2283,-0.2234,-0.2119,-0.2073,-0.202,-0.1947,-0.1894,-0.1816,-0.1762,-0.1657,-0.1618,-0.1529,-0.1453,-0.1319,-0.1238,-0.1151,-0.1128,-0.1113,-0.1115,-0.1135,-0.1125,-0.1128,-0.1122,-0.1114,-0.1114,-0.1115,-0.1115,0,-0.2264,-0.2229,-0.2155,-0.2067,-0.2005,-0.1932,-0.1857,-0.1823,-0.173,-0.1673,-0.1585,-0.1526,-0.141,-0.1321,-0.1224,-0.1166,-0.1124,-0.1115,-0.1104,-0.1122,-0.1151,-0.1132,-0.1169,-0.1116,-0.1116,-0.1116,-0.1116,-0.1116,-0.2261,-0.2214,-0.2125,-0.2044,-0.198,-0.1911,-0.1857,-0.179,-0.1716,-0.1616,-0.1574,-0.1485,-0.1396,-0.1261,-0.1204,-0.1132,-0.1123,-0.1108,-0.1103,-0.11,-0.1102,-0.1164,-0.1114,-0.1114,-0.1114,-0.1114,-0.1114,0,-0.2237,-0.2177,-0.2103,-0.2,-0.1936,-0.1904,-0.1819,-0.1767,-0.1689,-0.161,-0.1537,-0.1435,-0.1349,-0.1261,-0.1169,-0.1128,-0.1106,-0.1107,-0.1108,-0.1095,-0.1117,-0.1135,-0.1126,-0.1126,-0.1126,-0.1126,-0.1126,-0.1126,-0.2217,-0.2135,-0.209,-0.1975,-0.1914,-0.1827,-0.1781,-0.1716,-0.1653,-0.1542,-0.147,-0.1415,-0.1331,-0.1233,-0.1151,-0.1128,-0.1096,-0.1101,-0.1072,-0.1094,-0.1093,-0.1093,-0.1109,-0.1095,-0.1095,-0.1055,-0.1054,-0.1054]},{"header":{"parameterUnit":"m.s-1","parameterCategory":1,"la1":30.2991,"la2":30.254,"lo1":-89.0895,"lo2":-89.0444,"dy":0.0017,"dx":0.0017,"nx":28,"ny":28,"refTime":"2024-04-30T21:00:00:Z","depth":0,"parameterNumber":3,"parameterNumberName":"V-component_of_WINDS"},"data":[0,0,0,0,0,0,0,0,0,0,0,0,0,0,0,0,0,0,0,0,0,0,0,0,0,0,0,0,0,0,0,0,0,0,0,0,0,0,0,0,0,0,0,0,0,0,0,0,0,0,0,0,0,0,0,0,0,0,-1.1697,-1.1695,0,-1.1525,-1.1523,-1.1521,-1.1565,-1.1568,-1.1572,-1.1575,-1.1374,-1.1366,-1.1358,0,0,0,0,0,0,0,0,0,0,0,0,0,-1.2039,-1.2032,-1.1697,-1.1695,-1.1693,-1.1525,-1.1523,-1.152,-1.1564,-1.1568,-1.1572,-1.1576,-1.1377,-1.1367,-1.1357,0,0,0,0,0,0,0,0,0,0,0,0,0,-1.188,-1.203,-1.1697,-1.1695,-1.1693,-1.1525,-1.1522,-1.1519,-1.1563,-1.1568,-1.1574,-1.1578,-1.1381,-1.1368,-1.1355,-1.1172,0,0,-1.1316,-1.1311,0,0,0,0,0,0,0,0,-1.1889,-1.1867,-1.1697,-1.1695,-1.1692,-1.1572,-1.157,-1.1402,-1.1562,-1.1612,-1.1575,-1.1581,-1.1434,-1.1417,-1.1373,-1.1163,-1.1154,-1.1315,-1.1307,-1.1302,-1.1298,0,0,0,0,0,0,0,-1.19,-1.1875,-1.1628,-1.1695,-1.1692,-1.1694,-1.1677,-1.1538,-1.1495,-1.1608,-1.1611,-1.1591,-1.1434,-1.1385,-1.1368,-1.1151,-1.1315,-1.1304,-1.1296,-1.1291,-1.0774,-1.0768,0,0,0,0,0,0,-1.1916,-1.1884,-1.1633,-1.1623,-1.1806,-1.1684,-1.1665,-1.1605,-1.1497,-1.1486,-1.1587,-1.1594,-1.1405,-1.1383,-1.1362,-1.1135,-1.1302,-1.129,-1.1282,-1.078,-1.0772,-1.0766,0,0,0,0,0,0,-1.1924,-1.1894,-1.164,-1.1754,-1.1722,-1.1673,-1.1604,-1.1599,-1.1551,-1.1482,-1.1471,-1.1547,-1.1408,-1.138,-1.1219,-1.1129,-1.1284,-1.1272,-1.0787,-1.0778,-1.0769,-1.0684,0,0,0,0,0,0,-1.1933,-1.1896,-1.1832,-1.1753,-1.1716,-1.1508,-1.1599,-1.1592,-1.1531,-1.1539,-1.1441,-1.143,-1.141,-1.1238,-1.1206,-1.1114,-1.1262,-1.0795,-1.0783,-1.0772,-1.0695,-1.0674,-1.0655,0,0,0,0,0,-1.1945,-1.1811,-1.1829,-1.1798,-1.1637,-1.1504,-1.1482,-1.1468,-1.1524,-1.1455,-1.1409,-1.1433,-1.1145,-1.1221,-1.1186,-1.1089,-1.08,-1.0786,-1.0773,-1.0704,-1.0678,-1.0656,0,0,0,0,0,0,-1.1874,-1.1801,-1.182,-1.1658,-1.1587,-1.1512,-1.1424,-1.1442,-1.1348,-1.1358,-1.1338,-1.1315,-1.115,-1.1103,-1.119,-1.0902,-1.0979,-1.0958,-1.0939,-1.0913,-1.0894,-1.0906,-1.1252,0,0,0,0,0,-1.1841,-1.1747,-1.1685,-1.1547,-1.1512,-1.1474,-1.1416,-1.1412,-1.1335,-1.1303,-1.1246,-1.1163,-1.1053,-1.0981,-1.0877,-1.0689,-1.0663,-1.0604,-1.0584,-1.0568,-1.0548,-1.0438,-1.0409,-1.0721,-1.0721,-1.0722,0,0,-1.1769,-1.1717,-1.1658,-1.1532,-1.1477,-1.1371,-1.1448,-1.1335,-1.1253,-1.1283,-1.1129,-1.1084,-1.0989,-1.0813,-1.0732,-1.0768,-1.0457,-1.0551,-1.0539,-1.0527,-1.0421,-1.0391,-1.0365,-1.0712,-1.0714,-1.0715,0,0,-1.1583,-1.1538,-1.1417,-1.1361,-1.1279,-1.1254,-1.1225,-1.1145,-1.1119,-1.0966,-1.0984,-1.0882,-1.0696,-1.0627,-1.0567,-1.0351,-1.0365,-1.0317,-1.0211,-1.0104,-1.0079,-1.0057,-0.9974,-0.9945,-1.0298,-1.0298,-1.0298,0,-1.1501,-1.1352,-1.1349,-1.1234,-1.1174,-1.1204,-1.1075,-1.1018,-1.0902,-1.0856,-1.0901,-1.0665,-1.0604,-1.0409,-1.0356,-1.0309,-1.0267,-1.0326,-1.0085,-1.0063,-1.0042,-0.9962,-0.9931,-1.0292,-1.0293,-1.0293,-1.0294,0,-1.1252,-1.1147,-1.1057,-1.0953,-1.0883,-1.0761,-1.0732,-1.066,-1.0661,-1.0628,-1.0467,-1.0395,-1.0274,-1.0228,-1.0225,-1.0029,-1.0054,-1.0092,-1.0168,-1.0006,-0.993,-0.99,-1.0284,-1.0286,-1.0288,-1.0289,0,0,-1.1015,-1.0912,-1.0878,-1.0829,-1.074,-1.0654,-1.0529,-1.0419,-1.0354,-1.0272,-1.0161,-1.0002,-1.0036,-0.9967,-0.9957,-0.9863,-0.9689,-0.9911,-0.9909,-0.9868,-0.946,-0.9429,-0.9394,-0.97,-0.9694,-0.969,-0.9466,0,-1.0818,-1.0609,-1.0601,-1.0406,-1.0304,-1.0328,-1.0218,-1.0146,-1.0112,-1.0013,-0.9971,-0.9857,-0.9914,-0.9872,-0.9781,-0.973,-0.9606,-0.9746,-0.9587,-0.9582,-0.9607,-0.9356,-0.9323,-0.9116,-0.9437,-0.9432,-0.9428,0,-1.056,-1.0477,-1.0274,-1.0196,-1.0152,-1.0055,-0.995,-0.9859,-0.9774,-0.9754,-0.9678,-0.968,-0.9542,-0.9627,-0.9431,-0.9527,-0.946,-0.9425,-0.9416,-0.9397,-0.9492,-0.9324,-0.905,-0.9017,-0.9383,-0.9386,-0.939,0,-1.0402,-1.0238,-1.0094,-1.0052,-0.9958,-0.9888,-0.9844,-0.9766,-0.9698,-0.9602,-0.9556,-0.9444,-0.9381,-0.9289,-0.9256,-0.9323,-0.9059,-0.9143,-0.9031,-0.9031,-0.8971,-0.8975,-0.8678,-0.8937,-0.8937,-0.8938,-0.8939,0,-1.018,-1.0052,-1.0022,-0.9932,-0.9787,-0.9777,-0.963,-0.9589,-0.9519,-0.9414,-0.9427,-0.9327,-0.9293,-0.9184,-0.9157,-0.8995,-0.8967,-0.894,-0.8933,-0.8937,-0.8939,-0.889,-0.8901,-0.893,-0.8931,-0.8933,-0.8934,0,-0.9977,-0.9953,-0.9796,-0.9722,-0.9699,-0.9595,-0.9526,-0.9435,-0.9404,-0.9271,-0.9239,-0.9184,-0.9057,-0.9017,-0.8861,-0.8842,-0.8651,-0.8659,-0.8682,-0.868,-0.8568,-0.8577,-0.8225,-0.8175,-0.8472,-0.8469,-0.8467,0,-0.9835,-0.9739,-0.9655,-0.959,-0.9545,-0.944,-0.9372,-0.9355,-0.9282,-0.9176,-0.9095,-0.8972,-0.8871,-0.8664,-0.8604,-0.8483,-0.8485,-0.837,-0.8466,-0.8471,-0.8476,-0.848,-0.8467,-0.835,-0.8347,-0.8344,-0.8342,0,-0.9583,-0.9576,-0.9483,-0.9383,-0.9303,-0.9222,-0.9143,-0.9086,-0.9056,-0.8971,-0.8846,-0.8769,-0.8612,-0.8484,-0.8361,-0.8305,-0.8313,-0.8313,-0.828,-0.828,-0.8295,-0.8279,-0.8627,-0.832,-0.8323,-0.8324,-0.8325,-0.8326,-0.9402,-0.9316,-0.9244,-0.9137,-0.9077,-0.9003,-0.8913,-0.8871,-0.8769,-0.8645,-0.8639,-0.85,-0.8409,-0.8246,-0.8184,-0.8068,-0.81,-0.8053,-0.804,-0.8027,-0.8016,-0.8318,-0.8046,-0.8046,-0.8047,-0.8047,-0.8048,0,-0.9147,-0.9102,-0.9005,-0.8897,-0.881,-0.8837,-0.875,-0.8673,-0.8554,-0.8474,-0.8376,-0.8226,-0.8103,-0.8034,-0.7908,-0.7827,-0.7828,-0.7794,-0.7797,-0.7782,-0.7998,-0.8037,-0.7796,-0.7796,-0.7796,-0.7796,-0.7796,-0.7796,-0.9004,-0.8858,-0.8841,-0.8661,-0.8614,-0.8485,-0.8432,-0.836,-0.8296,-0.8132,-0.8032,-0.7991,-0.7912,-0.778,-0.7664,-0.7646,-0.7595,-0.7557,-0.7541,-0.7742,-0.7768,-0.7792,-0.7829,-0.7548,-0.7547,-0.7335,-0.7333,-0.7331]}]]